TimeCST,TemperatureF,Dew PointF,Humidity,Sea Level PressureIn,VisibilityMPH,Wind Direction,Wind SpeedMPH,Gust SpeedMPH,PrecipitationIn,Events,Conditions,WindDirDegrees,DateUTC
12:15 AM,22.5,16.5,78,29.99,10.0,West,10.4,-,N/A,,Overcast,280,2013-01-02 06:15:00
12:35 AM,23.7,17.8,78,29.99,10.0,West,8.1,-,N/A,,Overcast,280,2013-01-02 06:35:00
12:55 AM,25.2,19.0,78,29.98,10.0,West,9.2,-,N/A,,Overcast,280,2013-01-02 06:55:00
1:15 AM,26.1,19.9,78,29.98,10.0,West,11.5,-,N/A,,Overcast,280,2013-01-02 07:15:00
1:35 AM,27.1,20.7,77,29.98,10.0,West,10.4,-,N/A,,Overcast,280,2013-01-02 07:35:00
1:55 AM,27.5,21.6,78,29.98,10.0,WNW,11.5,-,N/A,Snow,Light Snow,290,2013-01-02 07:55:00
2:15 AM,27.9,23.4,83,29.99,5.0,WNW,11.5,-,N/A,Snow,Light Snow,290,2013-01-02 08:15:00
2:35 AM,27.9,24.4,87,29.99,7.0,WNW,11.5,-,N/A,Snow,Light Snow,290,2013-01-02 08:35:00
2:55 AM,28.4,25.5,89,30.00,4.0,WNW,11.5,-,N/A,Snow,Light Snow,300,2013-01-02 08:55:00
3:15 AM,28.4,26.6,93,30.01,3.0,WNW,12.7,17.3,N/A,Snow,Light Snow,300,2013-01-02 09:15:00
3:35 AM,28.9,26.6,91,30.01,4.0,NW,11.5,16.1,N/A,Snow,Light Snow,310,2013-01-02 09:35:00
3:55 AM,28.9,26.6,91,30.01,2.5,NW,13.8,17.3,N/A,Snow,Light Snow,310,2013-01-02 09:55:00
4:15 AM,28.9,26.6,91,30.01,5.0,NW,11.5,-,N/A,Snow,Light Snow,310,2013-01-02 10:15:00
4:35 AM,29.1,26.6,90,30.01,5.0,NW,11.5,-,N/A,Snow,Light Snow,320,2013-01-02 10:35:00
4:55 AM,29.3,26.6,90,30.01,4.0,NW,13.8,-,N/A,Snow,Light Snow,310,2013-01-02 10:55:00
5:15 AM,29.3,26.6,90,30.01,7.0,NW,13.8,18.4,N/A,Snow,Light Snow,310,2013-01-02 11:15:00
5:35 AM,28.9,26.2,90,30.01,7.0,NW,11.5,-,N/A,,Overcast,310,2013-01-02 11:35:00
5:55 AM,28.8,25.7,88,30.01,10.0,NW,10.4,-,N/A,,Mostly Cloudy,310,2013-01-02 11:55:00
6:15 AM,29.3,26.2,88,30.02,10.0,NW,6.9,-,N/A,,Mostly Cloudy,310,2013-01-02 12:15:00
6:35 AM,30.0,25.7,84,30.02,10.0,NW,6.9,-,N/A,,Mostly Cloudy,310,2013-01-02 12:35:00
6:55 AM,30.0,25.7,84,30.02,10.0,NW,9.2,16.1,N/A,Snow,Light Snow,310,2013-01-02 12:55:00
7:15 AM,30.2,25.7,83,30.02,10.0,WNW,10.4,-,N/A,,Overcast,290,2013-01-02 13:15:00
7:35 AM,30.2,25.7,83,30.02,10.0,West,11.5,-,N/A,,Overcast,280,2013-01-02 13:35:00
7:55 AM,30.2,26.1,85,30.03,10.0,WNW,13.8,20.7,N/A,,Overcast,300,2013-01-02 13:55:00
8:15 AM,30.7,25.2,80,30.03,10.0,WNW,12.7,19.6,N/A,,Overcast,300,2013-01-02 14:15:00
8:35 AM,30.7,24.8,79,30.03,10.0,WNW,11.5,17.3,N/A,,Overcast,300,2013-01-02 14:35:00
8:55 AM,30.2,24.6,80,30.03,10.0,WNW,9.2,17.3,N/A,,Overcast,300,2013-01-02 14:55:00
9:15 AM,30.4,24.4,79,30.04,10.0,NW,13.8,18.4,N/A,,Overcast,310,2013-01-02 15:15:00
9:35 AM,29.8,23.0,76,30.05,4.0,NW,21.9,27.6,N/A,Snow,Light Snow,320,2013-01-02 15:35:00
9:55 AM,28.9,23.9,81,30.05,5.0,NW,16.1,26.5,N/A,Snow,Light Snow,320,2013-01-02 15:55:00
10:15 AM,29.7,23.7,79,30.07,7.0,NW,15.0,25.3,N/A,Snow,Light Snow,310,2013-01-02 16:15:00
10:35 AM,29.8,23.7,78,30.07,10.0,NW,12.7,23.0,N/A,,Overcast,320,2013-01-02 16:35:00
10:55 AM,30.2,23.7,77,30.08,10.0,NW,17.3,24.2,N/A,,Overcast,320,2013-01-02 16:55:00
11:15 AM,30.2,23.0,75,30.08,10.0,NW,20.7,24.2,N/A,,Overcast,320,2013-01-02 17:15:00
11:35 AM,30.2,23.2,75,30.08,10.0,NW,15.0,20.7,N/A,,Overcast,310,2013-01-02 17:35:00
11:55 AM,30.9,23.0,72,30.07,10.0,NW,13.8,19.6,N/A,,Overcast,310,2013-01-02 17:55:00
12:15 PM,30.9,23.0,72,30.07,10.0,NW,17.3,21.9,N/A,,Overcast,320,2013-01-02 18:15:00
12:35 PM,30.6,23.0,74,30.06,10.0,NW,16.1,20.7,N/A,,Overcast,310,2013-01-02 18:35:00
12:55 PM,30.7,23.7,75,30.05,10.0,NW,12.7,-,N/A,,Overcast,310,2013-01-02 18:55:00
1:15 PM,30.9,23.9,75,30.05,10.0,WNW,13.8,21.9,N/A,,Overcast,300,2013-01-02 19:15:00
1:35 PM,31.1,23.0,72,30.05,10.0,NW,17.3,23.0,N/A,,Overcast,310,2013-01-02 19:35:00
1:55 PM,31.5,23.2,71,30.05,10.0,NW,18.4,23.0,N/A,,Overcast,310,2013-01-02 19:55:00
2:15 PM,31.6,23.4,71,30.05,10.0,NW,17.3,24.2,N/A,,Overcast,310,2013-01-02 20:15:00
2:35 PM,31.6,22.8,70,30.05,10.0,NW,15.0,-,N/A,,Overcast,320,2013-01-02 20:35:00
2:55 PM,31.8,22.6,69,30.06,10.0,NW,16.1,19.6,N/A,,Overcast,320,2013-01-02 20:55:00
3:15 PM,32.0,22.8,69,30.06,10.0,NW,13.8,21.9,N/A,,Overcast,310,2013-01-02 21:15:00
3:35 PM,32.0,22.8,69,30.07,10.0,NW,15.0,20.7,N/A,,Overcast,320,2013-01-02 21:35:00
3:55 PM,32.0,23.2,70,30.07,10.0,NW,12.7,18.4,N/A,,Overcast,310,2013-01-02 21:55:00
4:15 PM,31.8,23.4,71,30.08,10.0,NW,13.8,18.4,N/A,,Overcast,310,2013-01-02 22:15:00
4:35 PM,30.6,23.0,74,30.09,10.0,NW,18.4,26.5,N/A,,Overcast,310,2013-01-02 22:35:00
4:55 PM,29.3,21.9,74,30.09,10.0,NW,11.5,-,N/A,,Overcast,310,2013-01-02 22:55:00
5:15 PM,28.9,22.1,76,30.10,7.0,NW,10.4,-,N/A,Snow,Light Snow,310,2013-01-02 23:15:00
5:35 PM,28.9,21.9,75,30.11,10.0,NW,9.2,-,N/A,,Overcast,310,2013-01-02 23:35:00
5:55 PM,27.9,21.2,76,30.12,10.0,NW,16.1,26.5,N/A,,Overcast,310,2013-01-02 23:55:00
6:15 PM,26.6,21.0,79,30.13,10.0,NW,11.5,19.6,N/A,,Mostly Cloudy,320,2013-01-03 00:15:00
6:35 PM,26.2,21.0,81,30.13,10.0,NW,9.2,-,N/A,,Mostly Cloudy,310,2013-01-03 00:35:00
6:55 PM,26.2,21.2,81,30.14,10.0,NW,12.7,-,N/A,,Overcast,320,2013-01-03 00:55:00
7:15 PM,26.2,20.3,78,30.15,10.0,NW,15.0,19.6,N/A,,Overcast,310,2013-01-03 01:15:00
7:35 PM,24.8,19.4,80,30.15,10.0,NW,15.0,18.4,N/A,,Overcast,310,2013-01-03 01:35:00
7:55 PM,25.0,19.9,81,30.16,10.0,NW,16.1,-,N/A,,Overcast,320,2013-01-03 01:55:00
8:15 PM,25.3,19.6,79,30.16,10.0,NW,12.7,-,N/A,,Overcast,320,2013-01-03 02:15:00
8:35 PM,25.5,19.4,78,30.17,10.0,NW,16.1,21.9,N/A,,Overcast,320,2013-01-03 02:35:00
8:55 PM,25.7,19.4,77,30.17,10.0,NW,21.9,26.5,N/A,,Overcast,320,2013-01-03 02:55:00
9:15 PM,25.5,19.8,79,30.18,10.0,NW,17.3,21.9,N/A,,Overcast,320,2013-01-03 03:15:00
9:35 PM,25.7,19.9,79,30.19,10.0,NW,13.8,-,N/A,,Overcast,320,2013-01-03 03:35:00
9:55 PM,25.7,20.3,80,30.20,10.0,NW,18.4,25.3,N/A,,Overcast,320,2013-01-03 03:55:00
10:15 PM,25.7,20.7,81,30.21,10.0,NW,17.3,24.2,N/A,Snow,Light Snow,320,2013-01-03 04:15:00
10:35 PM,25.5,21.2,84,30.22,7.0,NW,16.1,23.0,N/A,Snow,Light Snow,320,2013-01-03 04:35:00
10:55 PM,25.3,21.2,84,30.22,10.0,NNW,16.1,-,N/A,,Overcast,330,2013-01-03 04:55:00
11:15 PM,25.3,21.2,84,30.23,10.0,NW,15.0,18.4,N/A,,Overcast,320,2013-01-03 05:15:00
11:35 PM,25.2,21.6,86,30.24,10.0,NNW,15.0,-,N/A,,Overcast,330,2013-01-03 05:35:00
11:55 PM,24.8,21.9,89,30.24,7.0,NW,15.0,-,N/A,,Overcast,320,2013-01-03 05:55:00